QPF
0.07 0.03 0.00 0.00 0.00 0.00 0.00 0.00 0.00 0.00 0.00 0.00 0.00 0.00 0.00 0.00 0.00 0.00 0.00 0.00 0.00 0.00
0.01 0.00 0.00 0.00 0.00 0.00 0.00 0.00 0.00 0.00 0.00 0.00 0.00 0.00 0.00 0.00 0.00 0.00 0.00 0.00 0.00 0.00
0.00 0.00 0.00 0.00 0.00 0.00 0.00 0.00 0.00 0.00 0.00 0.00 0.00 0.00 0.00 0.00 0.00 0.00 0.00 0.00 0.00 0.00
0.00 0.00 0.00 0.00 0.00 0.00 0.00 0.00 0.00 0.00 0.00 0.00 0.00 0.00 0.00 0.00 0.00 0.00 0.01 0.01 0.00 0.01
0.00 0.00 0.00 0.00 0.00 0.00 0.00 0.00 0.00 0.00 0.00 0.00 0.00 0.00 0.00 0.00 0.01 0.02 0.02 0.03 0.02 0.00
0.00 0.00 0.00 0.00 0.00 0.00 0.00 0.00 0.00 0.00 0.00 0.00 0.00 0.00 0.00 0.00 0.01 0.01 0.01 0.01 0.01 0.01
0.00 0.00 0.00 0.00 0.00 0.00 0.00 0.00 0.00 0.00 0.00 0.00 0.00 0.00 0.00 0.00 0.00 0.01 0.02 0.02 0.02 0.01
0.00 0.00 0.00 0.00 0.00 0.00 0.00 0.00 0.00 0.00 0.00 0.00 0.00 0.00 0.00 0.00 0.00 0.01 0.01 0.02 0.03 0.02
0.00 0.00 0.00 0.00 0.00 0.00 0.00 0.00 0.00 0.00 0.00 0.00 0.00 0.00 0.00 0.00 0.00 0.00 0.00 0.01 0.03 0.03
0.00 0.00 0.00 0.00 0.00 0.00 0.00 0.00 0.00 0.00 0.00 0.00 0.00 0.01 0.00 0.00 0.00 0.00 0.00 0.00 0.00 0.01
0.00 0.00 0.00 0.00 0.00 0.00 0.00 0.00 0.00 0.00 0.00 0.00 0.00 0.01 0.00 0.00 0.00 0.00 0.00 0.00 0.00 0.00
0.00 0.00 0.00 0.00 0.00 0.00 0.00 0.00 0.00 0.00 0.00 0.00 0.00 0.00 0.00 0.00 0.00 0.00 0.00 0.01 0.03 0.05
0.00 0.00 0.00 0.00 0.00 0.00 0.00 0.00 0.00 0.00 0.00 0.00 0.00 0.00 0.00 0.00 0.00 0.00 0.00 0.00 0.03 0.06
0.00 0.00 0.00 0.00 0.00 0.00 0.00 0.00 0.00 0.00 0.00 0.00 0.00 0.00 0.00 0.00 0.00 0.00 0.00 0.00 0.00 0.00
MSLP
1007.84 1008.57 1008.65 1008.87 1009.24 1009.85 1010.48 1011.09 1011.82 1012.43 1013.01 1013.32 1013.41 1013.59 1013.82 1013.92 1013.72 1013.68 1013.81 1013.75 1014.02 1013.77
1007.40 1007.72 1008.15 1008.72 1009.26 1009.75 1010.34 1010.86 1011.51 1012.23 1012.76 1013.03 1013.16 1013.26 1013.35 1013.39 1013.48 1013.30 1013.36 1013.60 1013.68 1013.89
1007.33 1007.78 1008.17 1008.89 1009.49 1009.66 1010.30 1011.04 1011.51 1012.08 1012.53 1012.77 1012.89 1013.13 1013.16 1013.20 1013.10 1012.85 1012.64 1012.98 1013.24 1013.41
1006.69 1007.33 1008.04 1008.62 1009.19 1009.79 1010.29 1010.91 1011.28 1011.70 1011.85 1012.05 1012.06 1012.27 1012.43 1012.39 1012.25 1012.11 1012.12 1012.40 1012.67 1012.88
1006.57 1007.39 1007.85 1008.38 1008.96 1009.49 1010.05 1010.68 1011.16 1011.31 1011.51 1011.54 1011.51 1011.54 1011.47 1011.48 1011.31 1011.33 1011.56 1011.51 1011.87 1012.20
1006.77 1007.28 1007.72 1008.26 1008.77 1009.53 1010.04 1010.33 1010.72 1010.97 1011.03 1011.06 1011.26 1011.14 1011.03 1010.90 1010.68 1010.47 1010.59 1010.91 1011.31 1011.56
1006.65 1007.12 1007.66 1008.32 1008.97 1009.56 1009.77 1010.14 1010.34 1010.38 1010.60 1010.80 1010.82 1010.79 1010.49 1010.27 1010.54 1010.91 1011.12 1011.11 1011.47 1011.45
1006.16 1006.65 1007.34 1008.25 1008.67 1009.22 1009.76 1009.90 1009.95 1009.96 1010.11 1010.49 1010.42 1010.54 1010.73 1010.83 1010.91 1010.73 1010.94 1011.00 1011.13 1011.23
1005.78 1006.49 1007.30 1007.93 1008.40 1008.82 1009.16 1009.19 1009.52 1009.88 1010.36 1010.54 1010.55 1010.78 1010.71 1010.78 1011.01 1010.61 1010.45 1010.73 1010.73 1010.85
1005.89 1006.19 1006.90 1007.46 1007.98 1008.35 1008.71 1008.98 1009.66 1010.17 1010.23 1010.56 1010.69 1011.09 1011.28 1011.10 1010.83 1010.77 1010.43 1010.44 1010.49 1010.48
1006.13 1006.53 1006.96 1007.56 1008.01 1008.46 1008.46 1008.85 1009.36 1009.91 1010.44 1010.63 1010.51 1010.65 1010.85 1011.41 1011.38 1010.62 1010.32 1010.16 1010.25 1010.49
1005.43 1005.92 1006.63 1007.67 1008.18 1008.45 1008.67 1009.18 1009.46 1009.77 1010.09 1010.24 1010.50 1010.42 1010.55 1010.60 1010.85 1010.69 1010.24 1010.14 1009.98 1010.23
1005.92 1006.02 1006.38 1006.94 1007.59 1007.71 1008.43 1008.89 1009.11 1009.71 1010.22 1010.18 1010.16 1009.90 1010.40 1010.48 1010.80 1010.20 1009.95 1010.03 1009.81 1010.01
1006.06 1006.54 1006.73 1007.02 1007.32 1007.67 1008.20 1009.31 1009.47 1009.78 1009.92 1009.78 1009.96 1009.86 1010.13 1010.39 1010.49 1010.17 1009.92 1009.76 1009.59 1009.72
Thickness
5687 5677 5671 5666 5657 5646 5635 5625 5615 5606 5594 5585 5578 5573 5565 5557 5552 5547 5539 5533 5524 5521
5682 5674 5665 5656 5646 5637 5626 5617 5607 5593 5582 5574 5568 5561 5553 5545 5537 5532 5527 5517 5509 5501
5668 5661 5653 5642 5630 5625 5615 5602 5593 5581 5570 5563 5555 5545 5538 5530 5524 5520 5515 5508 5498 5489
5662 5653 5641 5631 5622 5612 5602 5590 5581 5570 5562 5553 5546 5537 5529 5522 5516 5509 5501 5491 5485 5476
5649 5638 5629 5620 5610 5600 5589 5578 5567 5558 5550 5543 5536 5528 5521 5514 5508 5500 5490 5483 5470 5462
5632 5625 5616 5608 5598 5586 5576 5567 5557 5548 5541 5533 5524 5517 5510 5503 5499 5493 5484 5472 5459 5448
5620 5612 5604 5594 5583 5571 5564 5555 5546 5540 5531 5521 5514 5505 5501 5495 5485 5473 5462 5452 5439 5429
5612 5603 5593 5580 5571 5561 5552 5544 5537 5530 5522 5510 5503 5496 5485 5474 5465 5458 5446 5436 5425 5416
5601 5588 5577 5567 5559 5552 5543 5536 5527 5516 5505 5497 5489 5475 5467 5456 5448 5442 5434 5422 5412 5408
5585 5578 5566 5556 5548 5539 5531 5523 5511 5501 5493 5481 5472 5458 5447 5439 5434 5424 5417 5409 5405 5408
5569 5560 5553 5543 5534 5523 5516 5508 5500 5488 5476 5467 5460 5449 5436 5424 5416 5411 5406 5403 5404 5405
5558 5549 5539 5526 5516 5509 5501 5490 5484 5475 5465 5456 5444 5436 5427 5419 5410 5404 5404 5403 5405 5403
5540 5534 5525 5516 5505 5501 5490 5480 5472 5459 5448 5441 5433 5427 5416 5408 5401 5406 5407 5402 5405 5401
5524 5515 5508 5501 5494 5486 5476 5459 5453 5443 5435 5430 5422 5415 5406 5398 5396 5399 5401 5401 5403 5400